STARLINK-4139, 52879

Orbit data source: Space-Track

STARLINK-4139, 52879 is a payload satellite owned by SpaceX/Seattle (US) in LEO that was launched on Fri, 17 Jun 2022 UTC via an FALCON 9 launch vehicle from the Air Force Eastern Test Range (AFETR). Payload-class satellites include a variety of spacecraft equipped with specific instruments for various scientific and technological missions. These include communications satellites like Starlink; space stations such as the ISS; scientific satellites like the Hubble; Earth observation satellites from companies like Planet Labs, Umbra, and HawkEye 360; GPS; miniature CubeSats for education and research; and military/defense satellites.

Loading next visibility...
Identifier
52879, 2022-062BB
Orbit
LEO
Country
Flag of USUS
Related business
Manufacturer
SpaceX/Seattle
Mission
Operational Commercial Communications
Bus & Motor
STARLINK, Unknown motor
Mass
297 kg wet, ~275 kg dry
Launch date (UTC)
2022-06-17 (4 years ago)
Launch vehicle
FALCON 9
Launch site
Air Force Eastern Test Range (AFETR)
Object type
Payload
Rocket body
Debris
Shape & HBR
Box + 1 Pan, 10.1 m
Radar Cross Section
13.562 m², Large (>1 m²)

Expand to show TLE details & history
Last TLE update: 15 hours ago

TLE from 15 hours ago
0 STARLINK-4139
1 52879U 22062BB  25350.31889685  .00001508  00000-0  11278-3 0  9992
2 52879  53.2178  28.3884 0001420  95.8871 264.2283 15.08851933193482
Epoch: 2025-12-16T07:39Z
TLE epoch observation values (Epoch: 2025-12-16T07:39:12.687Z)
Latitude
-0.00005°
Longitude
-171.61932°
Altitude
540.703 km
Speed
7.593 km/s
True Right ascension
01h 53m 33s
True Declination
0° 00' 00"
Sunlit
Object was in full shadow at epoch
Visualization orbit readout
Latitude
Unknown
Longitude
Unknown
Altitude
Unknown
Speed
Unknown
Apparent Right ascension
Unknown
Apparent Declination
Unknown
Sunlit
N/A
Visualization observer readout
Local Sidereal Time
21:11:23
Azimuth
Unknown
Elevation
Unknown
Doppler factor
Unknown
Orbital elements
Apogee altitude
540.934 km
Perigee altitude
538.969 km
Semi-major axis
6,918.089 km
Eccentricity
0.00014
Inclination
53.2178°
RAAN
28.3884°
Arg. of periapsis
95.8871°
True anomaly
264.21211°
Mean anomaly
264.2283°
Eccentric anomaly
264.22021°
Mean motion
3.77193 °/min
Orbital period
95.44 mins
BSTAR
0.00011278
Loading maneuver chart data...
Computing Atmospheric mass density...
Loading historical data...
Loading historical data...
Loading historical data...
Loading historical data...
Loading historical data...
Loading historical data...
Loading historical data...

Documentation

Showing up to 5 results
|